Tucson Davis Monthan, AZ

11:12 AM MST on December 16, 2017 (GMT -0700)
Davis-Monthan Air Force Base

Weather History for KDMA - September, 2013

Change the Weather History Date:

Tuesday, September 3, 2013

  Actual Average Record
Temperature  
Mean Temperature 87 °F -  
Max Temperature 99 °F 96 °F 107 °F (1948)
Min Temperature 75 °F 70 °F 62 °F (1973)
Cooling Degree Days 22    
Growing Degree Days 37 (Base 50)    
Moisture  
Dew Point 60 °F    
Average Humidity 44    
Maximum Humidity 60    
Minimum Humidity 22    
Precipitation  
Precipitation 0.11 in - - ()
Sea Level Pressure  
Sea Level Pressure 29.86 in    
Wind  
Wind Speed 9 mph (ESE)    
Max Wind Speed 32 mph    
Max Gust Speed 51 mph    
Visibility 8 miles    
Events Rain , Thunderstorm    
Averages and records for this station are not official NWS values.
T = Trace of Precipitation, MM = Missing Value Source: NWS Daily Summary

Daily Weather History Graph

Daily Weather History Graph

Search for Another Location

Airport or City:

Trip Planner

Search our weather history database for the weather conditions in past years. The results will help you decide how hot, cold, wet, or windy it might be!

Date:

Astronomy

Sep. 03, 2013 Rise Set
Actual Time 6:00 AM MST 6:44 PM MST
Civil Twilight 5:35 AM MST 7:09 PM MST
Nautical Twilight 5:05 AM MST 7:38 PM MST
Astronomical Twilight 4:35 AM MST 8:08 PM MST
Moon 4:20 AM MST (9/3) 5:32 PM MST (9/3)
Length of Visible Light 13h 34m
Length of Day
12h 44m
Waning Crescent, 3% of the Moon is Illuminated
Sep 3
Waning Crescent
Sep 5
New
Sep 12
First Quarter
Sep 19
Full
Sep 26
Last Quarter

Hourly Weather History & Observations

Time (MST) Temp. Heat Index Dew Point Humidity Pressure Visibility Wind Dir Wind Speed Gust Speed Precip Events Conditions
12:58 AM 80.6 °F 81.0 °F 58.5 °F 47% 29.82 in 10.0 mi SSE 5.8 mph - N/A   Scattered Clouds
1:58 AM 79.0 °F - 58.6 °F 50% 29.82 in 10.0 mi South 6.9 mph - N/A   Partly Cloudy
2:58 AM 78.8 °F - 59.0 °F 51% 29.81 in 10.0 mi ESE 5.8 mph - N/A   Clear
3:58 AM 77.0 °F - 59.9 °F 55% 29.80 in 10.0 mi SE 9.2 mph - N/A   Clear
4:58 AM 75.0 °F - 60.1 °F 60% 29.81 in 10.0 mi SE 8.1 mph - N/A   Clear
5:58 AM 75.2 °F - 59.4 °F 58% 29.82 in 10.0 mi SSE 5.8 mph - N/A   Clear
6:58 AM 78.3 °F - 58.8 °F 51% 29.84 in 10.0 mi ESE 6.9 mph - N/A   Clear
7:58 AM 84.2 °F 83.7 °F 57.9 °F 41% 29.83 in 10.0 mi SE 12.7 mph - N/A   Clear
8:58 AM 89.2 °F 88.2 °F 58.5 °F 35% 29.83 in 10.0 mi South 6.9 mph - N/A   Clear
9:58 AM 93.9 °F 92.2 °F 56.5 °F 28% 29.84 in 10.0 mi ESE 2.3 mph - N/A   Clear
10:58 AM 96.1 °F 94.8 °F 56.7 °F 27% 29.83 in 10.0 mi Variable 2.3 mph - N/A   Clear
11:58 AM 99.5 °F 98.0 °F 55.9 °F 23% 29.81 in 10.0 mi Variable 2.3 mph - N/A   Clear
12:58 PM 99.7 °F 97.8 °F 54.1 °F 22% 29.77 in 10.0 mi NW 8.1 mph - N/A Thunderstorm Clear
12:59 PM 98.6 °F 97.2 °F 55.4 °F 24% 29.92 in 10.0 mi Variable 6.9 mph - N/A Thunderstorm Thunderstorm
1:27 PM 89.6 °F 88.9 °F 59.0 °F 36% 29.93 in 8.0 mi NE 23.0 mph 31.1 mph N/A Rain , Thunderstorm Light Thunderstorms and Rain
1:32 PM 89.6 °F 88.9 °F 59.0 °F 36% 29.94 in 1.8 mi ENE 32.2 mph 41.4 mph N/A Rain , Thunderstorm Light Thunderstorms and Rain
1:34 PM 89.6 °F 88.9 °F 59.0 °F 36% 29.94 in 1.0 mi NNE 18.4 mph 41.4 mph N/A Rain , Thunderstorm Light Thunderstorms and Rain
1:40 PM 87.8 °F 87.6 °F 60.8 °F 40% 29.95 in 0.8 mi Variable 4.6 mph 41.4 mph N/A Rain , Thunderstorm Light Thunderstorms and Rain
1:45 PM 86.0 °F 87.3 °F 64.4 °F 48% 29.96 in 1.2 mi ESE 4.6 mph - N/A Rain , Thunderstorm Light Thunderstorms and Rain
1:49 PM 84.2 °F 85.6 °F 64.4 °F 51% 29.95 in 1.8 mi East 32.2 mph 35.7 mph N/A Rain , Thunderstorm Heavy Thunderstorms and Rain
1:50 PM 82.4 °F 82.9 °F 60.8 °F 48% 29.95 in 1.5 mi NE 27.6 mph - N/A Rain , Thunderstorm Light Thunderstorms and Rain
1:52 PM 82.4 °F 82.5 °F 59.0 °F 45% 29.94 in 1.2 mi North 12.7 mph 50.6 mph N/A Rain , Thunderstorm Light Thunderstorms and Rain
1:58 PM 82.6 °F 82.6 °F 59.5 °F 45% 29.83 in 1.2 mi West 12.7 mph 50.6 mph 0.11 in Rain , Thunderstorm Light Thunderstorms and Rain
2:03 PM 82.4 °F 82.5 °F 59.0 °F 45% 29.94 in 2.5 mi WSW 11.5 mph 26.5 mph N/A Rain , Thunderstorm Light Thunderstorms and Rain
2:04 PM 82.4 °F 82.0 °F 57.2 °F 42% 29.94 in 3.0 mi WSW 10.4 mph 26.5 mph N/A Thunderstorm Unknown
2:10 PM 84.2 °F 83.5 °F 57.2 °F 40% 29.94 in 10.0 mi SSW 5.8 mph 24.2 mph N/A Thunderstorm Mostly Cloudy
2:58 PM 81.5 °F 82.7 °F 62.6 °F 53% 29.83 in 10.0 mi West 1.2 mph - 0.00 in Thunderstorm Scattered Clouds
3:14 PM 82.4 °F 83.4 °F 62.6 °F 51% 29.94 in 10.0 mi South 3.5 mph - N/A Thunderstorm Light Drizzle
3:51 PM 84.2 °F 85.0 °F 62.6 °F 48% 29.95 in 10.0 mi Variable 4.6 mph - N/A Thunderstorm Clear
3:58 PM 84.6 °F 85.2 °F 62.2 °F 47% 29.83 in 10.0 mi East 13.8 mph - 0.00 in Thunderstorm Clear
4:38 PM 80.6 °F 81.8 °F 62.6 °F 54% 29.93 in 10.0 mi NE 10.4 mph - N/A   Light Drizzle
4:58 PM 83.7 °F 84.7 °F 63.1 °F 50% 29.80 in 10.0 mi Variable 6.9 mph - 0.00 in Rain Light Rain
7:35 PM 84.7 °F 83.9 °F 57.6 °F 39% 29.77 in 10.0 mi East 8.1 mph - N/A   Scattered Clouds
7:55 PM 83.7 °F 83.4 °F 59.2 °F 43% 29.76 in 10.0 mi ESE 8.1 mph - 0.00 in   Light Drizzle
8:55 PM 84.2 °F 84.4 °F 60.8 °F 45% 29.79 in 10.0 mi SSE 3.5 mph - N/A   Mostly Cloudy
9:55 PM 80.6 °F 82.3 °F 64.4 °F 58% 29.81 in 10.0 mi ENE 4.6 mph - N/A   Partly Cloudy
10:55 PM 80.6 °F 81.5 °F 60.8 °F 51% 29.80 in 10.0 mi ESE 5.8 mph - N/A   Clear
11:58 PM 79.5 °F - 61.0 °F 53% 29.84 in 10.0 mi ENE 6.9 mph - N/A   Clear